Home   Weather   Leirvik   Past weeks

Flag for Norway Past Weather in Leirvik, Norway — Yesterday and Last 2 Weeks

Now
45 °F

Quite cool.


Feels Like: 45 °F
Forecast: 38 / 51 °F
Wind: 2 mph from Southeast

Location: Slatteroy Fyr

Current Time: Apr 29, 2017 at 2:19:49 am

Latest Report: Apr 29, 2017 at 2:00 am


Visibility: N/A

Pressure: 29.98 "Hg

Humidity: 56%

Dew Point: 30 °F

Location of LeirvikLocation

Past Weather in Leirvik — Graph

°F

Leirvik Temperature Yesterday

Maximum temperature yesterday: 48 °F (at 7:00 pm)
Minimum temperature yesterday: 38 °F (at 4:00 am)
Average temperature yesterday: 44 °F

High & Low Weather Summary for the Past Weeks

 TemperatureHumidityPressure
High48 °F (Apr 28, 7:00 pm)97% (Apr 20, 10:00 am)30.57 "Hg (Apr 20, 10:00 am)
Low33 °F (Apr 27, 5:00 am)39% (Apr 25, 3:00 pm)29.47 "Hg (Apr 24, 2:00 am)
Average41 °F76%29.94 "Hg
* Reported Apr 14 1:00 am — Apr 29 1:00 am, Leirvik, Weather by CustomWeather, © 2017

Note: Actual official high and low records may vary slightly from our data, if they occured in-between our weather recording intervals... More about our weather records

Advertising

Leirvik Weather History for the Previous 24 Hours

Scroll right to see more
 ConditionsComfort  
Time TempWeatherWind HumidityBarometerVisibility
1:00 am
Sat, Apr 29
45 °FQuite cool.1 mph58%29.96 "HgN/A
12:00 am45 °FCool.3 mph71%29.95 "HgN/A
11:00 pm
Fri, Apr 28
45 °FCool.2 mph55%29.95 "HgN/A
10:00 pm46 °FCool.6 mph60%29.95 "HgN/A
9:00 pm47 °FCool.6 mph63%29.93 "HgN/A
8:00 pm48 °FCool.2 mph46%29.93 "HgN/A
7:00 pm48 °FCool.3 mph44%29.93 "HgN/A
6:00 pm47 °FCool.8 mph52%29.91 "HgN/A
5:00 pm47 °FCool.9 mph47%29.91 "HgN/A
4:00 pm47 °FCool.2 mph40%29.92 "HgN/A
3:00 pm47 °FCool.5 mph44%29.92 "HgN/A
2:00 pm46 °FCool.6 mph44%29.91 "HgN/A
1:00 pm45 °FCool.6 mph45%29.91 "HgN/A
12:00 pm45 °FQuite cool.7 mph48%29.91 "HgN/A
11:00 am44 °FQuite cool.7 mph46%29.92 "HgN/A
10:00 am44 °FQuite cool.8 mph46%29.92 "HgN/A
9:00 am43 °FQuite cool.9 mph49%29.91 "HgN/A
8:00 am42 °FQuite cool.10 mph49%29.90 "HgN/A
7:00 am42 °FQuite cool.9 mph55%29.89 "HgN/A
6:00 am40 °FQuite cool.3 mph65%29.88 "HgN/A
5:00 am39 °FChilly.2 mph75%29.87 "HgN/A
4:00 am38 °FChilly.7 mph71%29.86 "HgN/A
3:00 am41 °FQuite cool.5 mph65%29.84 "HgN/A
2:00 am42 °FQuite cool.6 mph78%29.81 "HgN/A
Weather by CustomWeather, © 2017

See weather overviewHow to use our weather pages